Location: Frydek-Mistek
(49.6830°N, 18.3330°E)
Time: 13:47:05
(UTC+02:00)

Courier 1B Rocket - All Passes

Search period start: 04 July 2015 00:00
Search period end: 14 July 2015 00:00
Orbit: 921 x 1202 km, 28.2° (Epoch: 02 July)

Date Brightness Start Highest point End Pass type
(mag) Time Alt. Az. Time Alt. Az. Time Alt. Az.
04 Jul - 21:56:46 10° SSW 21:59:59 13° S 22:03:08 10° SSE visible
05 Jul - 20:56:08 10° SSW 20:59:17 13° S 21:02:26 10° SSE daylight
05 Jul - 22:48:55 10° SSW 22:51:27 12° S 22:53:52 10° S visible
06 Jul - 19:56:01 10° S 19:58:34 12° S 20:01:13 10° SSE daylight
06 Jul - 21:47:28 10° SSW 21:50:47 13° S 21:53:59 10° SSE visible
07 Jul - 18:57:17 10° S 18:57:52 10° SSE 18:58:38 10° SSE daylight
07 Jul - 20:46:30 10° SSW 20:50:04 14° S 20:53:36 10° SSE daylight
07 Jul - 22:40:57 10° SSW 22:42:14 10° SSW 22:43:21 10° S visible
08 Jul - 19:45:57 10° SSW 19:49:21 13° S 19:52:47 10° SSE daylight
08 Jul - 21:38:37 10° SSW 21:41:33 12° S 21:44:23 10° SSE visible
09 Jul - 18:45:55 10° S 18:48:37 12° S 18:51:28 10° SSE daylight
09 Jul - 20:37:18 10° SSW 20:40:51 14° S 20:44:20 10° SSE daylight
10 Jul - 17:47:14 10° S 17:47:56 10° SSE 17:48:49 10° SSE daylight
10 Jul - 19:36:27 10° SSW 19:40:07 14° S 19:43:47 10° SSE daylight
10 Jul - 21:30:32 10° SSW 21:32:19 11° SSW 21:33:57 10° S visible
11 Jul - 18:36:00 10° SSW 18:39:24 13° S 18:42:52 10° SSE daylight
11 Jul - 20:28:32 10° SSW 20:31:37 13° S 20:34:37 10° SSE daylight
12 Jul - 17:36:06 10° S 17:38:41 12° S 17:41:24 10° SSE daylight
12 Jul - 19:27:21 10° SSW 19:30:54 14° S 19:34:25 10° SSE daylight
13 Jul - 18:26:37 10° SSW 18:30:10 14° S 18:33:46 10° SSE daylight
13 Jul - 20:20:34 10° SSW 20:22:23 11° SSW 20:24:02 10° S daylight
